Location: Boitzum
(52.1496°N, 9.6943°E)
Time: 00:28:59
(UTC+00:00)

MOS 1 Rocket - Pass Details

Date: 13 January 2026
Orbit: 608 x 815 km, 97.4° (Epoch: 17 February)

Event Time Altitude Azimuth Distance (km) Brightness Sun altitude
Rises 06:33:13 0° 9° (N) 3,113 6.5 -7.6°
Reaches altitude 10° 06:35:35 10° 5° (N) 2,156 5.6 -7.3°
Maximum altitude 06:40:06 49° 291° (WNW) 861 3.4 -6.7°
Drops below altitude 10° 06:44:22 10° 217° (SW) 2,029 5.6 -6.1°
Sets 06:46:33 0° 212° (SSW) 2,911 6.5 -5.8°
